KZ1X Weather Reports


Display with metric or nautical units.
time (UTC)temp
F
wind
direction
speed
MPH
gust
MPH
rain 1hr
in
rain 24hr
in
rain mn
in
humidity
%
barometer
mb
20260831063048 68 0 0.0 0.0 0.00 0.00 0.00 99 1020.7
20260831061548 68 0 0.0 0.0 0.00 0.00 0.00 98 1020.5
20260831060058 68 0 0.0 0.0 0.00 0.00 0.00 98 1020.6
20260831054546 68 0 0.0 0.0 0.00 0.00 0.00 98 1020.5
20260831053053 68 0 0.0 0.0 0.00 0.00 0.00 98 1020.7
20260831051544 69 0 0.0 0.0 0.00 0.00 0.00 98 1020.6
20260831050052 69 0 0.0 0.0 0.00 0.00 0.00 98 1020.8
20260831044551 69 0 0.0 0.0 0.00 0.00 0.00 98 1020.7
20260831043049 69 0 0.0 0.0 0.00 0.00 0.00 98 1020.8
20260831041551 69 0 0.0 0.0 0.00 0.00 0.00 98 1020.7
20260831040049 70 0 0.0 0.0 0.00 0.00 0.00 98 1020.8
20260831034547 70 0 0.0 0.0 0.00 0.00 0.00 98 1020.9
20260831033051 70 0 0.0 0.0 0.00 0.00 0.00 98 1020.9
20260831031548 70 0 0.0 0.0 0.00 0.00 0.00 98 1020.7
20260831030049 70 0 0.0 0.0 0.00 0.00 0.00 98 1020.9
20260831024554 71 0 0.0 0.0 0.00 0.00 0.00 98 1021.0
20260831023044 71 0 0.0 0.0 0.00 0.00 0.00 97 1021.0
20260831021548 71 0 0.0 0.0 0.00 0.00 0.00 97 1020.9
20260831020109 72 0 0.0 0.0 0.00 0.00 0.00 97 1020.7
20260831014547 72 0 0.0 0.0 0.00 0.00 0.00 97 1020.8
20260831013043 72 0 0.0 0.0 0.00 0.00 0.00 96 1020.7
20260831011602 72 0 0.0 0.0 0.00 0.00 0.00 96 1020.5
20260831010049 73 0 0.0 0.0 0.00 0.00 0.00 96 1020.4
20260831004551 73 0 0.0 0.0 0.00 0.00 0.00 95 1020.4
20260831003042 74 0 0.0 0.0 0.00 0.00 0.00 94 1020.3
20260831001550 74 0 0.0 0.0 0.00 0.00 0.00 92 1020.4
20260831000050 75 0 0.0 0.0 0.00 0.00 0.00 91 1020.3
20260830234548 76 0 0.0 0.0 0.00 0.00 0.00 89 1020.1
20260830233049 77 0 0.0 0.0 0.00 0.00 0.00 87 1020.4
20260830231550 77 0 0.0 0.0 0.00 0.00 0.00 85 1020.6
20260830230049 78 0 0.0 0.0 0.00 0.00 0.00 84 1020.4
20260830224544 79 0 0.0 0.0 0.00 0.00 0.00 85 1020.6
20260830223052 79 0 0.0 0.0 0.00 0.00 0.00 86 1020.5
20260830221550 80 0 0.0 0.0 0.00 0.00 0.00 86 1020.4
20260830214550 81 0 0.0 0.0 0.00 0.00 0.00 85 1020.3
20260830213050 82 0 0.0 0.0 0.00 0.00 0.00 84 1020.1
20260830211556 82 0 0.0 0.0 0.00 0.00 0.00 82 1020.3
20260830210057 83 0 0.0 0.0 0.00 0.00 0.00 80 1020.4
20260830204555 84 0 0.0 0.0 0.00 0.00 0.00 80 1020.4
20260830203051 81 0 0.0 0.0 0.00 0.00 0.00 87 1020.6
20260830201552 81 0 0.0 0.0 0.00 0.00 0.00 86 1020.7
20260830200048 82 0 0.0 0.0 0.00 0.00 0.00 81 1020.9
20260830194545 84 0 0.0 0.0 0.00 0.00 0.00 78 1021.2
20260830193044 83 0 0.0 1.0 0.00 0.00 0.00 80 1021.4
20260830191548 83 0 0.0 0.0 0.00 0.00 0.00 80 1021.6
20260830190049 82 0 0.0 0.0 0.00 0.00 0.00 77 1021.5
20260830184542 82 62 0.0 1.0 0.00 0.00 0.00 80 1021.8
20260830183053 83 277 0.0 2.0 0.00 0.00 0.00 76 1022.2
20260830181550 83 0 0.0 1.0 0.00 0.00 0.00 74 1022.4
20260830180049 83 0 0.0 1.0 0.00 0.00 0.00 82 1022.6
20260830174552 83 0 0.0 1.0 0.00 0.00 0.00 78 1022.7
20260830173051 82 65 0.0 3.0 0.00 0.00 0.00 81 1022.9
20260830171549 83 0 0.0 2.0 0.00 0.00 0.00 78 1023.0
20260830170049 83 0 0.0 0.0 0.00 0.00 0.00 78 1023.0
20260830164544 81 224 0.0 1.0 0.00 0.00 0.00 81 1023.1
20260830163050 79 0 0.0 1.0 0.00 0.00 0.00 84 1023.5
20260830161604 78 0 0.0 1.0 0.00 0.00 0.00 87 1023.6
20260830160048 77 0 0.0 0.0 0.00 0.00 0.00 91 1023.5
20260830154541 77 0 0.0 0.0 0.00 0.00 0.00 89 1023.7
20260830153057 76 0 0.0 0.0 0.00 0.00 0.00 90 1023.7
20260830151551 76 0 0.0 2.0 0.00 0.00 0.00 89 1023.7
20260830150049 76 0 0.0 1.0 0.00 0.00 0.00 92 1023.7
20260830144546 75 0 0.0 1.0 0.00 0.00 0.00 92 1023.9
20260830143048 74 0 0.0 0.0 0.00 0.00 0.00 93 1023.8
20260830141549 73 0 0.0 0.0 0.00 0.00 0.00 96 1024.0
20260830140049 73 0 0.0 0.0 0.00 0.00 0.00 96 1024.1
20260830134543 72 0 0.0 0.0 0.00 0.00 0.00 98 1024.2
20260830133053 71 0 0.0 0.0 0.00 0.00 0.00 99 1024.1
20260830131548 71 0 0.0 0.0 0.00 0.00 0.00 99 1024.0
20260830130105 71 0 0.0 0.0 0.00 0.00 0.00 99 1023.8
20260830124543 71 0 0.0 0.0 0.00 0.00 0.00 99 1023.7
20260830123050 70 0 0.0 0.0 0.00 0.00 0.00 99 1023.9
20260830121550 70 0 0.0 0.0 0.00 0.00 0.00 99 1023.9
20260830120054 69 0 0.0 0.0 0.00 0.00 0.00 99 1023.8
20260830114606 69 0 0.0 0.0 0.00 0.00 0.00 99 1023.8
20260830113047 69 0 0.0 0.0 0.00 0.00 0.00 99 1023.7
20260830111550 68 0 0.0 0.0 0.00 0.00 0.00 99 1023.4
20260830110047 68 0 0.0 0.0 0.00 0.00 0.00 99 1023.3
20260830104541 67 0 0.0 0.0 0.00 0.00 0.00 99 1023.2
20260830103051 67 0 0.0 0.0 0.00 0.00 0.00 99 1023.1
20260830101553 67 0 0.0 0.0 0.00 0.00 0.00 99 1023.0
20260830100051 68 0 0.0 0.0 0.00 0.00 0.00 99 1022.8
20260830094542 68 0 0.0 0.0 0.00 0.00 0.00 99 1022.6
20260830093049 68 0 0.0 0.0 0.00 0.00 0.00 99 1022.5
20260830091549 68 0 0.0 0.0 0.00 0.00 0.00 99 1022.7
20260830090047 68 0 0.0 0.0 0.00 0.00 0.00 99 1022.6
20260830084548 68 0 0.0 0.0 0.00 0.00 0.00 99 1022.7
20260830083053 68 0 0.0 0.0 0.00 0.00 0.00 99 1022.8
20260830081601 69 0 0.0 0.0 0.00 0.00 0.00 99 1022.8
20260830080048 69 0 0.0 0.0 0.00 0.00 0.00 99 1022.6
20260830074557 69 0 0.0 0.0 0.00 0.00 0.00 99 1022.8
20260830073041 69 0 0.0 0.0 0.00 0.00 0.00 99 1022.8
20260830071553 69 0 0.0 0.0 0.00 0.00 0.00 98 1022.7
20260830070050 69 0 0.0 0.0 0.00 0.00 0.00 98 1022.7
20260830064555 69 0 0.0 0.0 0.00 0.00 0.00 98 1022.7